Powrót do katalogu

STARLINK-1609

AktywnyŁącznośćVLEO
NORAD 47621·PAYLOAD·🇺🇸 United States

Wystrzelony Feb 16, 2021 z Cape Canaveral Space Force Station

Loading…

Następne Przeloty (najbliższe 24 godziny)

TLE

ŚwieżeSource: CelesTrak SupGP

Epoka: Sep 14, 2026, 21:44 UTC

1 47621C 21012B   26257.90604167  .00112560  00000+0  14613-2 0  2579
2 47621  53.1514 245.1183 0004288  58.0963 334.7154 15.58130056    10

Śledź STARLINK-1609 w czasie rzeczywistym z AllMySat

Download on the App Store